Time,TemperatureF,DewpointF,PressureIn,WindDirection,WindDirectionDegrees,WindSpeedMPH,WindSpeedGustMPH,Humidity,HourlyPrecipIn,Conditions,Clouds,dailyrainin,SoftwareType,DateUTC
2013-06-13 00:01:00,86.6,37.4,27.26,ESE,113,2.2,2.5,18,0.00,,,0.00,WUHU216HW,2013-06-13 07:01:00,
2013-06-13 00:06:00,86.2,37.1,27.26,ENE,68,0.9,2.2,18,0.00,,,0.00,WUHU216HW,2013-06-13 07:06:00,
2013-06-13 00:11:00,85.9,38.4,27.26,NE,45,0.2,2.2,19,0.00,,,0.00,WUHU216HW,2013-06-13 07:11:00,
2013-06-13 00:16:00,85.5,38.2,27.27,ESE,113,0.4,1.8,19,0.00,,,0.00,WUHU216HW,2013-06-13 07:16:00,
2013-06-13 00:21:00,85.3,39.8,27.27,ESE,113,0.2,1.8,20,0.00,,,0.00,WUHU216HW,2013-06-13 07:21:00,
2013-06-13 00:26:00,85.0,40.5,27.27,East,90,0.0,1.6,21,0.00,,,0.00,WUHU216HW,2013-06-13 07:26:00,
2013-06-13 00:31:00,84.8,41.5,27.27,ESE,113,1.1,1.8,22,0.00,,,0.00,WUHU216HW,2013-06-13 07:31:00,
2013-06-13 00:36:00,84.6,41.3,27.27,East,90,1.6,2.7,22,0.00,,,0.00,WUHU216HW,2013-06-13 07:36:00,
2013-06-13 00:41:00,84.4,41.1,27.27,East,90,1.8,2.7,22,0.00,,,0.00,WUHU216HW,2013-06-13 07:41:00,
2013-06-13 00:46:00,84.2,41.1,27.27,NE,45,0.0,2.5,22,0.00,,,0.00,WUHU216HW,2013-06-13 07:46:00,
2013-06-13 00:51:00,83.9,40.7,27.27,ENE,68,0.9,1.6,22,0.00,,,0.00,WUHU216HW,2013-06-13 07:51:00,
2013-06-13 00:56:00,83.9,40.7,27.28,NE,45,0.4,1.6,22,0.00,,,0.00,WUHU216HW,2013-06-13 07:56:00,
2013-06-13 01:01:00,83.5,41.5,27.28,NE,45,1.1,1.1,23,0.00,,,0.00,WUHU216HW,2013-06-13 08:01:00,
2013-06-13 01:06:00,83.3,41.3,27.27,NNE,23,0.4,1.1,23,0.00,,,0.00,WUHU216HW,2013-06-13 08:06:00,
2013-06-13 01:11:00,83.2,41.1,27.27,North,0,0.0,1.3,23,0.00,,,0.00,WUHU216HW,2013-06-13 08:11:00,
2013-06-13 01:16:00,83.2,41.1,27.27,NE,45,0.9,1.8,23,0.00,,,0.00,WUHU216HW,2013-06-13 08:16:00,
2013-06-13 01:21:00,83.0,41.1,27.27,NNW,338,1.3,2.0,23,0.00,,,0.00,WUHU216HW,2013-06-13 08:21:00,
2013-06-13 01:26:00,83.0,41.1,27.28,NE,45,1.1,2.5,23,0.00,,,0.00,WUHU216HW,2013-06-13 08:26:00,
2013-06-13 01:31:00,83.2,41.1,27.28,ENE,68,0.9,2.5,23,0.00,,,0.00,WUHU216HW,2013-06-13 08:31:00,
2013-06-13 01:36:00,83.2,41.1,27.27,NNW,338,1.8,2.7,23,0.00,,,0.00,WUHU216HW,2013-06-13 08:36:00,
2013-06-13 01:41:00,82.8,40.9,27.27,NNE,23,0.9,2.7,23,0.00,,,0.00,WUHU216HW,2013-06-13 08:41:00,
2013-06-13 01:46:00,82.4,40.6,27.28,East,90,0.9,1.8,23,0.00,,,0.00,WUHU216HW,2013-06-13 08:46:00,
2013-06-13 01:51:00,82.1,41.3,27.28,NE,45,1.1,2.0,24,0.00,,,0.00,WUHU216HW,2013-06-13 08:51:00,
2013-06-13 01:56:00,81.7,41.0,27.28,North,0,1.8,2.7,24,0.00,,,0.00,WUHU216HW,2013-06-13 08:56:00,
2013-06-13 02:01:00,81.5,41.9,27.28,NNW,338,2.0,2.7,25,0.00,,,0.00,WUHU216HW,2013-06-13 09:01:00,
2013-06-13 02:06:00,81.4,41.8,27.28,North,0,2.5,3.1,25,0.00,,,0.00,WUHU216HW,2013-06-13 09:06:00,
2013-06-13 02:11:00,81.4,41.8,27.29,NNW,338,1.8,3.1,25,0.00,,,0.00,WUHU216HW,2013-06-13 09:11:00,
2013-06-13 02:16:00,81.4,41.8,27.28,North,0,3.4,4.0,25,0.00,,,0.00,WUHU216HW,2013-06-13 09:16:00,
2013-06-13 02:21:00,81.4,41.8,27.28,North,0,1.3,4.0,25,0.00,,,0.00,WUHU216HW,2013-06-13 09:21:00,
2013-06-13 02:26:00,81.2,41.7,27.29,North,0,0.4,3.4,25,0.00,,,0.00,WUHU216HW,2013-06-13 09:26:00,
2013-06-13 02:31:00,81.2,41.7,27.29,NNE,23,0.0,2.5,25,0.00,,,0.00,WUHU216HW,2013-06-13 09:31:00,
2013-06-13 02:36:00,81.0,41.5,27.29,NNE,23,0.0,2.2,25,0.00,,,0.00,WUHU216HW,2013-06-13 09:36:00,
2013-06-13 02:41:00,80.8,41.4,27.29,NNE,23,0.0,0.9,25,0.00,,,0.00,WUHU216HW,2013-06-13 09:41:00,
2013-06-13 02:46:00,80.6,41.2,27.29,North,0,0.4,2.2,25,0.00,,,0.00,WUHU216HW,2013-06-13 09:46:00,
2013-06-13 02:51:00,81.0,42.6,27.29,NNW,338,1.3,2.2,26,0.00,,,0.00,WUHU216HW,2013-06-13 09:51:00,
2013-06-13 02:56:00,81.5,43.0,27.29,NNW,338,2.5,3.6,26,0.00,,,0.00,WUHU216HW,2013-06-13 09:56:00,
2013-06-13 03:01:00,81.9,42.2,27.29,North,0,1.1,3.6,25,0.00,,,0.00,WUHU216HW,2013-06-13 10:01:00,
2013-06-13 03:06:00,82.1,42.4,27.29,NW,315,2.2,3.4,25,0.00,,,0.00,WUHU216HW,2013-06-13 10:06:00,
2013-06-13 03:11:00,82.1,42.4,27.29,East,90,1.1,3.4,25,0.00,,,0.00,WUHU216HW,2013-06-13 10:11:00,
2013-06-13 03:16:00,82.1,42.4,27.29,NE,45,1.8,2.9,25,0.00,,,0.00,WUHU216HW,2013-06-13 10:16:00,
2013-06-13 03:21:00,82.1,42.4,27.29,WSW,248,1.6,2.5,25,0.00,,,0.00,WUHU216HW,2013-06-13 10:21:00,
2013-06-13 03:26:00,82.1,43.4,27.29,NE,45,1.8,3.6,26,0.00,,,0.00,WUHU216HW,2013-06-13 10:26:00,
2013-06-13 03:31:00,82.3,43.6,27.29,NE,45,3.4,4.7,26,0.00,,,0.00,WUHU216HW,2013-06-13 10:31:00,
2013-06-13 03:36:00,82.4,43.8,27.29,NW,315,2.0,4.7,26,0.00,,,0.00,WUHU216HW,2013-06-13 10:36:00,
2013-06-13 03:41:00,82.4,43.8,27.29,NW,315,3.6,4.5,26,0.00,,,0.00,WUHU216HW,2013-06-13 10:41:00,
2013-06-13 03:46:00,82.4,44.7,27.29,WNW,293,3.6,4.5,27,0.00,,,0.00,WUHU216HW,2013-06-13 10:46:00,
2013-06-13 03:51:00,82.4,45.8,27.29,NNE,23,3.4,3.8,28,0.00,,,0.00,WUHU216HW,2013-06-13 10:51:00,
2013-06-13 03:56:00,82.3,43.6,27.30,North,0,1.1,3.6,26,0.00,,,0.00,WUHU216HW,2013-06-13 10:56:00,
2013-06-13 04:01:00,81.7,44.2,27.30,NNW,338,2.5,3.8,27,0.00,,,0.00,WUHU216HW,2013-06-13 11:01:00,
2013-06-13 04:06:00,81.4,44.9,27.30,NNW,338,1.6,3.8,28,0.00,,,0.00,WUHU216HW,2013-06-13 11:06:00,
2013-06-13 04:11:00,81.0,44.6,27.30,North,0,1.1,3.1,28,0.00,,,0.00,WUHU216HW,2013-06-13 11:11:00,
2013-06-13 04:16:00,80.6,44.4,27.30,NNW,338,1.1,2.0,28,0.00,,,0.00,WUHU216HW,2013-06-13 11:16:00,
2013-06-13 04:21:00,80.3,44.0,27.30,NNW,338,0.4,1.8,28,0.00,,,0.00,WUHU216HW,2013-06-13 11:21:00,
2013-06-13 04:26:00,79.7,43.6,27.30,NW,315,1.8,1.8,28,0.00,,,0.00,WUHU216HW,2013-06-13 11:26:00,
2013-06-13 04:31:00,79.6,43.4,27.30,NNW,338,1.8,2.0,28,0.00,,,0.00,WUHU216HW,2013-06-13 11:31:00,
2013-06-13 04:36:00,79.2,43.0,27.30,NNW,338,1.3,2.5,28,0.00,,,0.00,WUHU216HW,2013-06-13 11:36:00,
2013-06-13 04:41:00,79.0,42.9,27.31,NNW,338,0.7,2.5,28,0.00,,,0.00,WUHU216HW,2013-06-13 11:41:00,
2013-06-13 04:46:00,78.7,43.7,27.31,NNW,338,1.3,2.0,29,0.00,,,0.00,WUHU216HW,2013-06-13 11:46:00,
2013-06-13 04:51:00,78.5,43.5,27.31,NW,315,0.4,2.9,29,0.00,,,0.00,WUHU216HW,2013-06-13 11:51:00,
2013-06-13 04:56:00,78.3,43.4,27.31,NNW,338,0.7,2.9,29,0.00,,,0.00,WUHU216HW,2013-06-13 11:56:00,
2013-06-13 05:01:00,78.1,43.2,27.31,North,0,1.1,2.5,29,0.00,,,0.00,WUHU216HW,2013-06-13 12:01:00,
2013-06-13 05:06:00,78.1,44.3,27.31,North,0,2.0,2.5,30,0.00,,,0.00,WUHU216HW,2013-06-13 12:06:00,
2013-06-13 05:11:00,78.1,44.3,27.31,North,0,1.1,2.2,30,0.00,,,0.00,WUHU216HW,2013-06-13 12:11:00,
2013-06-13 05:16:00,77.9,44.1,27.31,NNW,338,1.3,2.9,30,0.00,,,0.00,WUHU216HW,2013-06-13 12:16:00,
2013-06-13 05:21:00,77.9,44.1,27.31,NNW,338,1.1,2.9,30,0.00,,,0.00,WUHU216HW,2013-06-13 12:21:00,
2013-06-13 05:26:00,77.8,43.9,27.32,North,0,1.6,2.5,30,0.00,,,0.00,WUHU216HW,2013-06-13 12:26:00,
2013-06-13 05:31:00,77.8,44.7,27.32,NNW,338,1.8,2.0,31,0.00,,,0.00,WUHU216HW,2013-06-13 12:31:00,
2013-06-13 05:36:00,77.6,44.6,27.32,NNW,338,1.8,2.0,31,0.00,,,0.00,WUHU216HW,2013-06-13 12:36:00,
2013-06-13 05:41:00,77.6,44.6,27.32,NNW,338,1.1,2.2,31,0.00,,,0.00,WUHU216HW,2013-06-13 12:41:00,
2013-06-13 05:46:00,77.4,44.5,27.32,North,0,0.4,2.2,31,0.00,,,0.00,WUHU216HW,2013-06-13 12:46:00,
2013-06-13 05:51:00,77.2,45.0,27.32,North,0,1.1,1.8,32,0.00,,,0.00,WUHU216HW,2013-06-13 12:51:00,
2013-06-13 05:56:00,77.4,45.2,27.32,NNW,338,1.1,1.6,32,0.00,,,0.00,WUHU216HW,2013-06-13 12:56:00,
2013-06-13 06:01:00,77.4,45.2,27.32,NNW,338,0.0,1.3,32,0.00,,,0.00,WUHU216HW,2013-06-13 13:01:00,
2013-06-13 06:06:00,77.4,45.2,27.33,NNW,338,2.0,2.0,32,0.00,,,0.00,WUHU216HW,2013-06-13 13:06:00,
2013-06-13 06:11:00,77.4,45.2,27.33,NW,315,1.8,2.2,32,0.00,,,0.00,WUHU216HW,2013-06-13 13:11:00,
2013-06-13 06:16:00,77.4,45.2,27.33,North,0,0.9,2.2,32,0.00,,,0.00,WUHU216HW,2013-06-13 13:16:00,
2013-06-13 06:21:00,77.6,45.4,27.32,North,0,1.1,2.5,32,0.00,,,0.00,WUHU216HW,2013-06-13 13:21:00,
2013-06-13 06:26:00,77.9,46.4,27.32,North,0,0.9,2.5,33,0.00,,,0.00,WUHU216HW,2013-06-13 13:26:00,
2013-06-13 06:31:00,78.1,46.5,27.32,NNW,338,1.3,2.5,33,0.00,,,0.00,WUHU216HW,2013-06-13 13:31:00,
2013-06-13 06:36:00,78.5,46.8,27.32,North,0,1.1,2.5,33,0.00,,,0.00,WUHU216HW,2013-06-13 13:36:00,
2013-06-13 06:41:00,78.8,47.2,27.33,North,0,0.4,2.5,33,0.00,,,0.00,WUHU216HW,2013-06-13 13:41:00,
2013-06-13 06:46:00,79.2,47.4,27.32,NNE,23,0.4,2.0,33,0.00,,,0.00,WUHU216HW,2013-06-13 13:46:00,
2013-06-13 06:51:00,79.6,47.8,27.32,NNW,338,2.2,2.2,33,0.00,,,0.00,WUHU216HW,2013-06-13 13:51:00,
2013-06-13 06:56:00,79.9,48.2,27.33,North,0,1.1,2.5,33,0.00,,,0.00,WUHU216HW,2013-06-13 13:56:00,
2013-06-13 07:01:00,80.3,47.7,27.33,NNW,338,0.9,2.5,32,0.00,,,0.00,WUHU216HW,2013-06-13 14:01:00,
2013-06-13 07:06:00,80.6,48.0,27.33,East,90,1.3,2.5,32,0.00,,,0.00,WUHU216HW,2013-06-13 14:06:00,
2013-06-13 07:11:00,81.0,48.2,27.33,NE,45,0.7,2.5,32,0.00,,,0.00,WUHU216HW,2013-06-13 14:11:00,
2013-06-13 07:16:00,81.4,47.8,27.33,NE,45,2.5,2.5,31,0.00,,,0.00,WUHU216HW,2013-06-13 14:16:00,
2013-06-13 07:21:00,81.7,48.1,27.33,North,0,1.8,2.5,31,0.00,,,0.00,WUHU216HW,2013-06-13 14:21:00,
2013-06-13 07:26:00,81.9,47.4,27.33,NNE,23,1.1,2.5,30,0.00,,,0.00,WUHU216HW,2013-06-13 14:26:00,
2013-06-13 07:31:00,82.1,46.5,27.33,East,90,1.6,2.5,29,0.00,,,0.00,WUHU216HW,2013-06-13 14:31:00,
2013-06-13 07:36:00,82.3,46.7,27.33,NW,315,1.3,1.8,29,0.00,,,0.00,WUHU216HW,2013-06-13 14:36:00,
2013-06-13 07:41:00,82.4,46.8,27.33,NNE,23,1.1,1.6,29,0.00,,,0.00,WUHU216HW,2013-06-13 14:41:00,
2013-06-13 07:46:00,82.6,46.0,27.33,East,90,0.4,1.8,28,0.00,,,0.00,WUHU216HW,2013-06-13 14:46:00,
2013-06-13 07:51:00,83.0,46.3,27.34,ESE,113,0.4,1.8,28,0.00,,,0.00,WUHU216HW,2013-06-13 14:51:00,
2013-06-13 07:56:00,83.2,44.3,27.34,SE,135,1.1,2.5,26,0.00,,,0.00,WUHU216HW,2013-06-13 14:56:00,
2013-06-13 08:01:00,83.3,44.5,27.34,ESE,113,1.1,2.5,26,0.00,,,0.00,WUHU216HW,2013-06-13 15:01:00,
2013-06-13 08:06:00,83.5,43.6,27.34,East,90,0.7,1.8,25,0.00,,,0.00,WUHU216HW,2013-06-13 15:06:00,
2013-06-13 08:11:00,83.9,43.9,27.34,ESE,113,1.1,2.5,25,0.00,,,0.00,WUHU216HW,2013-06-13 15:11:00,
2013-06-13 08:16:00,84.1,44.0,27.34,SE,135,1.3,2.5,25,0.00,,,0.00,WUHU216HW,2013-06-13 15:16:00,
2013-06-13 08:21:00,84.2,44.2,27.34,SE,135,2.0,2.2,25,0.00,,,0.00,WUHU216HW,2013-06-13 15:21:00,
2013-06-13 08:26:00,84.4,44.4,27.34,SE,135,1.1,2.0,25,0.00,,,0.00,WUHU216HW,2013-06-13 15:26:00,
2013-06-13 08:31:00,84.6,43.5,27.34,SE,135,1.1,2.7,24,0.00,,,0.00,WUHU216HW,2013-06-13 15:31:00,
2013-06-13 08:36:00,85.0,43.8,27.34,SE,135,1.1,2.7,24,0.00,,,0.00,WUHU216HW,2013-06-13 15:36:00,
2013-06-13 08:41:00,85.5,44.2,27.34,ENE,68,1.1,2.2,24,0.00,,,0.00,WUHU216HW,2013-06-13 15:41:00,
2013-06-13 08:46:00,85.9,43.4,27.34,ESE,113,0.9,2.2,23,0.00,,,0.00,WUHU216HW,2013-06-13 15:46:00,
2013-06-13 08:51:00,86.0,43.6,27.33,East,90,0.0,1.8,23,0.00,,,0.00,WUHU216HW,2013-06-13 15:51:00,
2013-06-13 08:56:00,86.0,43.6,27.34,SSE,158,0.4,1.3,23,0.00,,,0.00,WUHU216HW,2013-06-13 15:56:00,
2013-06-13 09:01:00,86.2,43.8,27.34,SW,225,2.5,2.5,23,0.00,,,0.00,WUHU216HW,2013-06-13 16:01:00,
2013-06-13 09:06:00,86.8,44.2,27.33,NW,315,0.9,2.7,23,0.00,,,0.00,WUHU216HW,2013-06-13 16:06:00,
2013-06-13 09:11:00,87.1,44.5,27.33,SE,135,1.1,2.7,23,0.00,,,0.00,WUHU216HW,2013-06-13 16:11:00,
2013-06-13 09:16:00,87.5,43.7,27.33,SE,135,0.7,3.1,22,0.00,,,0.00,WUHU216HW,2013-06-13 16:16:00,
2013-06-13 09:21:00,87.8,44.1,27.33,SE,135,1.8,3.1,22,0.00,,,0.00,WUHU216HW,2013-06-13 16:21:00,
2013-06-13 09:26:00,88.2,44.4,27.33,South,180,3.6,4.3,22,0.00,,,0.00,WUHU216HW,2013-06-13 16:26:00,
2013-06-13 09:31:00,88.6,44.6,27.33,East,90,1.8,5.1,22,0.00,,,0.00,WUHU216HW,2013-06-13 16:31:00,
2013-06-13 09:36:00,88.6,44.6,27.33,South,180,0.0,5.1,22,0.00,,,0.00,WUHU216HW,2013-06-13 16:36:00,
2013-06-13 09:41:00,88.9,44.9,27.33,SSE,158,1.3,3.4,22,0.00,,,0.00,WUHU216HW,2013-06-13 16:41:00,
2013-06-13 09:46:00,89.3,44.2,27.33,SE,135,2.5,3.8,21,0.00,,,0.00,WUHU216HW,2013-06-13 16:46:00,
2013-06-13 09:51:00,89.5,44.3,27.34,WSW,248,2.2,3.8,21,0.00,,,0.00,WUHU216HW,2013-06-13 16:51:00,
2013-06-13 09:56:00,89.3,44.2,27.34,SE,135,1.1,2.5,21,0.00,,,0.00,WUHU216HW,2013-06-13 16:56:00,
2013-06-13 10:01:00,89.6,44.5,27.33,SE,135,2.2,3.8,21,0.00,,,0.00,WUHU216HW,2013-06-13 17:01:00,
2013-06-13 10:06:00,89.6,44.5,27.34,SSE,158,0.9,3.8,21,0.00,,,0.00,WUHU216HW,2013-06-13 17:06:00,
2013-06-13 10:11:00,89.6,43.4,27.34,SSE,158,1.3,3.8,20,0.00,,,0.00,WUHU216HW,2013-06-13 17:11:00,
2013-06-13 10:16:00,90.0,42.0,27.34,East,90,1.6,3.8,19,0.00,,,0.00,WUHU216HW,2013-06-13 17:16:00,
2013-06-13 10:21:00,90.4,43.9,27.33,ESE,113,2.5,3.4,20,0.00,,,0.00,WUHU216HW,2013-06-13 17:21:00,
2013-06-13 10:26:00,91.1,42.8,27.33,SSE,158,3.1,5.4,19,0.00,,,0.00,WUHU216HW,2013-06-13 17:26:00,
2013-06-13 10:31:00,91.8,43.4,27.33,SSE,158,2.7,5.4,19,0.00,,,0.00,WUHU216HW,2013-06-13 17:31:00,
2013-06-13 10:36:00,92.0,43.5,27.33,SSE,158,2.0,5.4,19,0.00,,,0.00,WUHU216HW,2013-06-13 17:36:00,
2013-06-13 10:41:00,92.2,43.7,27.33,ESE,113,2.2,5.4,19,0.00,,,0.00,WUHU216HW,2013-06-13 17:41:00,
2013-06-13 10:46:00,92.2,43.7,27.33,SSE,158,2.0,4.3,19,0.00,,,0.00,WUHU216HW,2013-06-13 17:46:00,
2013-06-13 10:51:00,92.2,43.7,27.33,SSW,203,2.5,4.3,19,0.00,,,0.00,WUHU216HW,2013-06-13 17:51:00,
2013-06-13 10:56:00,92.5,43.9,27.33,South,180,1.8,4.7,19,0.00,,,0.00,WUHU216HW,2013-06-13 17:56:00,
2013-06-13 11:01:00,92.7,44.1,27.33,ENE,68,2.9,4.7,19,0.00,,,0.00,WUHU216HW,2013-06-13 18:01:00,
2013-06-13 11:06:00,93.1,42.6,27.33,SE,135,4.0,4.9,18,0.00,,,0.00,WUHU216HW,2013-06-13 18:06:00,
2013-06-13 11:11:00,93.4,42.8,27.33,SSE,158,0.7,4.9,18,0.00,,,0.00,WUHU216HW,2013-06-13 18:11:00,
2013-06-13 11:16:00,93.6,43.0,27.32,SSE,158,3.8,4.0,18,0.00,,,0.00,WUHU216HW,2013-06-13 18:16:00,
2013-06-13 11:21:00,94.0,43.3,27.32,SSW,203,2.2,4.0,18,0.00,,,0.00,WUHU216HW,2013-06-13 18:21:00,
2013-06-13 11:26:00,94.3,43.6,27.32,SSE,158,3.6,6.9,18,0.00,,,0.00,WUHU216HW,2013-06-13 18:26:00,
2013-06-13 11:31:00,94.7,43.9,27.32,SW,225,1.8,6.9,18,0.00,,,0.00,WUHU216HW,2013-06-13 18:31:00,
2013-06-13 11:36:00,94.9,44.0,27.32,SSW,203,6.3,6.3,18,0.00,,,0.00,WUHU216HW,2013-06-13 18:36:00,
2013-06-13 11:41:00,95.8,43.0,27.31,South,180,2.5,6.3,17,0.00,,,0.00,WUHU216HW,2013-06-13 18:41:00,
2013-06-13 11:46:00,95.8,43.0,27.31,SE,135,1.1,6.3,17,0.00,,,0.00,WUHU216HW,2013-06-13 18:46:00,
2013-06-13 11:51:00,95.8,43.0,27.31,SW,225,2.0,6.0,17,0.00,,,0.00,WUHU216HW,2013-06-13 18:51:00,
2013-06-13 11:56:00,95.9,43.2,27.31,SW,225,3.8,6.0,17,0.00,,,0.00,WUHU216HW,2013-06-13 18:56:00,
2013-06-13 12:01:00,95.9,43.2,27.31,SSW,203,2.2,4.7,17,0.00,,,0.00,WUHU216HW,2013-06-13 19:01:00,
2013-06-13 12:06:00,96.3,41.7,27.31,SE,135,5.6,5.6,16,0.00,,,0.00,WUHU216HW,2013-06-13 19:06:00,
2013-06-13 12:11:00,96.7,41.9,27.30,SSE,158,4.7,7.2,16,0.00,,,0.00,WUHU216HW,2013-06-13 19:11:00,
2013-06-13 12:16:00,97.0,42.3,27.30,South,180,9.2,9.2,16,0.00,,,0.00,WUHU216HW,2013-06-13 19:16:00,
2013-06-13 12:21:00,97.2,42.4,27.30,NE,45,3.4,9.2,16,0.00,,,0.00,WUHU216HW,2013-06-13 19:21:00,
2013-06-13 12:26:00,97.4,42.6,27.30,SSW,203,7.2,7.2,16,0.00,,,0.00,WUHU216HW,2013-06-13 19:26:00,
2013-06-13 12:31:00,97.4,42.6,27.30,SSE,158,2.5,7.2,16,0.00,,,0.00,WUHU216HW,2013-06-13 19:31:00,
2013-06-13 12:36:00,97.2,42.4,27.30,SE,135,2.9,7.2,16,0.00,,,0.00,WUHU216HW,2013-06-13 19:36:00,
2013-06-13 12:41:00,97.6,42.7,27.29,SE,135,2.5,4.9,16,0.00,,,0.00,WUHU216HW,2013-06-13 19:41:00,
2013-06-13 12:46:00,97.6,42.7,27.29,South,180,4.5,6.9,16,0.00,,,0.00,WUHU216HW,2013-06-13 19:46:00,
2013-06-13 12:51:00,97.9,41.2,27.29,SSW,203,4.9,6.9,15,0.00,,,0.00,WUHU216HW,2013-06-13 19:51:00,
2013-06-13 12:56:00,97.9,41.2,27.29,SW,225,2.5,8.7,15,0.00,,,0.00,WUHU216HW,2013-06-13 19:56:00,
2013-06-13 13:01:00,98.3,41.5,27.29,NNW,338,4.9,8.7,15,0.00,,,0.00,WUHU216HW,2013-06-13 20:01:00,
2013-06-13 13:06:00,98.6,41.8,27.28,SSW,203,7.4,9.2,15,0.00,,,0.00,WUHU216HW,2013-06-13 20:06:00,
2013-06-13 13:11:00,98.6,41.8,27.28,SSE,158,2.5,9.2,15,0.00,,,0.00,WUHU216HW,2013-06-13 20:11:00,
2013-06-13 13:16:00,99.0,42.0,27.28,East,90,5.6,9.2,15,0.00,,,0.00,WUHU216HW,2013-06-13 20:16:00,
2013-06-13 13:21:00,98.8,42.0,27.27,SSE,158,3.1,7.8,15,0.00,,,0.00,WUHU216HW,2013-06-13 20:21:00,
2013-06-13 13:26:00,98.8,42.0,27.27,South,180,3.4,8.1,15,0.00,,,0.00,WUHU216HW,2013-06-13 20:26:00,
2013-06-13 13:31:00,99.5,42.5,27.27,SSE,158,6.3,8.1,15,0.00,,,0.00,WUHU216HW,2013-06-13 20:31:00,
2013-06-13 13:36:00,100.3,41.2,27.27,SW,225,7.6,7.6,14,0.00,,,0.00,WUHU216HW,2013-06-13 20:36:00,
2013-06-13 13:41:00,100.8,41.7,27.27,SE,135,4.7,7.6,14,0.00,,,0.00,WUHU216HW,2013-06-13 20:41:00,
2013-06-13 13:46:00,101.2,42.0,27.27,ESE,113,6.0,11.2,14,0.00,,,0.00,WUHU216HW,2013-06-13 20:46:00,
2013-06-13 13:51:00,100.8,41.7,27.27,ESE,113,2.9,11.2,14,0.00,,,0.00,WUHU216HW,2013-06-13 20:51:00,
2013-06-13 13:56:00,101.0,41.8,27.26,SSE,158,2.0,6.7,14,0.00,,,0.00,WUHU216HW,2013-06-13 20:56:00,
2013-06-13 14:01:00,101.2,42.0,27.26,SSW,203,5.1,9.2,14,0.00,,,0.00,WUHU216HW,2013-06-13 21:01:00,
2013-06-13 14:06:00,101.0,43.6,27.26,ENE,68,3.6,9.2,15,0.00,,,0.00,WUHU216HW,2013-06-13 21:06:00,
2013-06-13 14:11:00,101.3,43.9,27.25,SW,225,4.0,7.2,15,0.00,,,0.00,WUHU216HW,2013-06-13 21:11:00,
2013-06-13 14:16:00,102.4,42.8,27.25,SE,135,4.0,6.9,14,0.00,,,0.00,WUHU216HW,2013-06-13 21:16:00,
2013-06-13 14:21:00,103.0,43.3,27.25,NNW,338,3.4,6.9,14,0.00,,,0.00,WUHU216HW,2013-06-13 21:21:00,
2013-06-13 14:26:00,102.6,43.0,27.25,SE,135,5.4,6.9,14,0.00,,,0.00,WUHU216HW,2013-06-13 21:26:00,
2013-06-13 14:31:00,102.8,43.2,27.25,ESE,113,1.8,7.4,14,0.00,,,0.00,WUHU216HW,2013-06-13 21:31:00,
2013-06-13 14:36:00,103.7,43.9,27.25,South,180,3.1,7.4,14,0.00,,,0.00,WUHU216HW,2013-06-13 21:36:00,
2013-06-13 14:41:00,104.4,44.5,27.24,SSE,158,1.1,6.5,14,0.00,,,0.00,WUHU216HW,2013-06-13 21:41:00,
2013-06-13 14:46:00,104.9,41.2,27.24,ESE,113,4.5,7.6,12,0.00,,,0.00,WUHU216HW,2013-06-13 21:46:00,
2013-06-13 14:51:00,104.6,41.0,27.24,SSE,158,3.4,8.5,12,0.00,,,0.00,WUHU216HW,2013-06-13 21:51:00,
2013-06-13 14:56:00,105.1,41.3,27.24,SE,135,2.5,8.5,12,0.00,,,0.00,WUHU216HW,2013-06-13 21:56:00,
2013-06-13 15:01:00,105.8,41.9,27.23,SE,135,2.9,5.4,12,0.00,,,0.00,WUHU216HW,2013-06-13 22:01:00,
2013-06-13 15:06:00,106.2,42.1,27.23,SE,135,3.8,7.2,12,0.00,,,0.00,WUHU216HW,2013-06-13 22:06:00,
2013-06-13 15:11:00,106.7,42.6,27.23,SSE,158,3.4,7.2,12,0.00,,,0.00,WUHU216HW,2013-06-13 22:11:00,
2013-06-13 15:16:00,107.5,43.2,27.23,SE,135,2.5,5.8,12,0.00,,,0.00,WUHU216HW,2013-06-13 22:16:00,
2013-06-13 15:21:00,107.5,43.2,27.23,ESE,113,2.7,6.7,12,0.00,,,0.00,WUHU216HW,2013-06-13 22:21:00,
2013-06-13 15:26:00,107.6,43.3,27.22,SW,225,3.1,6.7,12,0.00,,,0.00,WUHU216HW,2013-06-13 22:26:00,
2013-06-13 15:31:00,107.8,43.5,27.22,SSE,158,2.2,7.4,12,0.00,,,0.00,WUHU216HW,2013-06-13 22:31:00,
2013-06-13 15:36:00,106.9,42.8,27.22,SE,135,4.3,7.6,12,0.00,,,0.00,WUHU216HW,2013-06-13 22:36:00,
2013-06-13 15:41:00,106.6,40.6,27.22,South,180,3.6,7.6,11,0.00,,,0.00,WUHU216HW,2013-06-13 22:41:00,
2013-06-13 15:46:00,107.5,43.2,27.22,SE,135,9.8,9.8,12,0.00,,,0.00,WUHU216HW,2013-06-13 22:46:00,
2013-06-13 15:51:00,108.2,43.8,27.22,SSE,158,3.1,9.8,12,0.00,,,0.00,WUHU216HW,2013-06-13 22:51:00,
2013-06-13 15:56:00,107.5,43.2,27.21,SE,135,7.2,9.8,12,0.00,,,0.00,WUHU216HW,2013-06-13 22:56:00,
2013-06-13 16:01:00,106.6,40.6,27.21,SE,135,2.5,7.2,11,0.00,,,0.00,WUHU216HW,2013-06-13 23:01:00,
2013-06-13 16:06:00,106.6,40.6,27.21,SSE,158,4.7,7.2,11,0.00,,,0.00,WUHU216HW,2013-06-13 23:06:00,
2013-06-13 16:11:00,106.9,40.9,27.21,SSE,158,2.7,7.2,11,0.00,,,0.00,WUHU216HW,2013-06-13 23:11:00,
2013-06-13 16:16:00,107.1,42.8,27.20,SSE,158,4.3,6.5,12,0.00,,,0.00,WUHU216HW,2013-06-13 23:16:00,
2013-06-13 16:21:00,106.6,40.6,27.20,SSE,158,5.4,5.4,11,0.00,,,0.00,WUHU216HW,2013-06-13 23:21:00,
2013-06-13 16:26:00,106.2,40.3,27.20,South,180,4.7,6.3,11,0.00,,,0.00,WUHU216HW,2013-06-13 23:26:00,
2013-06-13 16:31:00,106.2,40.3,27.20,SE,135,5.4,7.6,11,0.00,,,0.00,WUHU216HW,2013-06-13 23:31:00,
2013-06-13 16:36:00,106.4,40.4,27.20,SSE,158,5.4,8.9,11,0.00,,,0.00,WUHU216HW,2013-06-13 23:36:00,
2013-06-13 16:41:00,105.8,40.0,27.20,WSW,248,2.5,8.9,11,0.00,,,0.00,WUHU216HW,2013-06-13 23:41:00,
2013-06-13 16:46:00,106.2,40.3,27.19,SE,135,3.4,5.6,11,0.00,,,0.00,WUHU216HW,2013-06-13 23:46:00,
2013-06-13 16:51:00,106.9,42.8,27.19,ESE,113,1.8,5.6,12,0.00,,,0.00,WUHU216HW,2013-06-13 23:51:00,
2013-06-13 16:56:00,107.3,43.0,27.19,South,180,4.0,6.3,12,0.00,,,0.00,WUHU216HW,2013-06-13 23:56:00,
2013-06-13 17:01:00,106.0,40.1,27.19,ESE,113,4.5,8.5,11,0.00,,,0.00,WUHU216HW,2013-06-14 00:01:00,
2013-06-13 17:06:00,105.5,39.8,27.19,SSE,158,4.0,8.5,11,0.00,,,0.00,WUHU216HW,2013-06-14 00:06:00,
2013-06-13 17:11:00,105.7,39.9,27.19,ESE,113,4.3,6.0,11,0.00,,,0.00,WUHU216HW,2013-06-14 00:11:00,
2013-06-13 17:16:00,106.0,40.1,27.18,ESE,113,2.0,5.4,11,0.00,,,0.00,WUHU216HW,2013-06-14 00:16:00,
2013-06-13 17:21:00,106.6,40.6,27.18,SSE,158,4.7,5.4,11,0.00,,,0.00,WUHU216HW,2013-06-14 00:21:00,
2013-06-13 17:26:00,106.0,40.1,27.18,SSW,203,4.0,8.3,11,0.00,,,0.00,WUHU216HW,2013-06-14 00:26:00,
2013-06-13 17:31:00,106.4,40.4,27.18,SE,135,5.1,8.3,11,0.00,,,0.00,WUHU216HW,2013-06-14 00:31:00,
2013-06-13 17:36:00,105.5,39.8,27.18,East,90,3.1,5.6,11,0.00,,,0.00,WUHU216HW,2013-06-14 00:36:00,
2013-06-13 17:41:00,104.9,41.2,27.18,South,180,2.7,5.6,12,0.00,,,0.00,WUHU216HW,2013-06-14 00:41:00,
2013-06-13 17:46:00,104.6,41.0,27.18,SSE,158,7.4,8.9,12,0.00,,,0.00,WUHU216HW,2013-06-14 00:46:00,
2013-06-13 17:51:00,104.4,40.8,27.18,SSW,203,5.4,8.9,12,0.00,,,0.00,WUHU216HW,2013-06-14 00:51:00,
2013-06-13 17:56:00,103.3,40.0,27.18,SW,225,3.4,9.4,12,0.00,,,0.00,WUHU216HW,2013-06-14 00:56:00,
2013-06-13 18:01:00,103.1,39.8,27.18,SSW,203,3.4,9.4,12,0.00,,,0.00,WUHU216HW,2013-06-14 01:01:00,
2013-06-13 18:06:00,102.6,43.0,27.18,SE,135,3.4,8.7,14,0.00,,,0.00,WUHU216HW,2013-06-14 01:06:00,
2013-06-13 18:11:00,101.9,42.5,27.18,East,90,2.2,8.7,14,0.00,,,0.00,WUHU216HW,2013-06-14 01:11:00,
2013-06-13 18:16:00,101.0,41.8,27.18,South,180,3.4,6.9,14,0.00,,,0.00,WUHU216HW,2013-06-14 01:16:00,
2013-06-13 18:21:00,100.6,41.5,27.18,WSW,248,2.5,6.9,14,0.00,,,0.00,WUHU216HW,2013-06-14 01:21:00,
2013-06-13 18:26:00,100.4,43.2,27.18,South,180,3.4,6.5,15,0.00,,,0.00,WUHU216HW,2013-06-14 01:26:00,
2013-06-13 18:31:00,100.1,44.7,27.19,SE,135,3.1,7.8,16,0.00,,,0.00,WUHU216HW,2013-06-14 01:31:00,
2013-06-13 18:36:00,99.7,44.5,27.19,SSE,158,1.6,7.8,16,0.00,,,0.00,WUHU216HW,2013-06-14 01:36:00,
2013-06-13 18:41:00,99.5,44.3,27.19,SSW,203,5.4,7.2,16,0.00,,,0.00,WUHU216HW,2013-06-14 01:41:00,
2013-06-13 18:46:00,99.2,42.2,27.19,SE,135,4.7,7.2,15,0.00,,,0.00,WUHU216HW,2013-06-14 01:46:00,
2013-06-13 18:51:00,98.8,42.0,27.19,SSW,203,2.7,7.6,15,0.00,,,0.00,WUHU216HW,2013-06-14 01:51:00,
2013-06-13 18:56:00,98.5,41.6,27.19,SE,135,6.0,7.6,15,0.00,,,0.00,WUHU216HW,2013-06-14 01:56:00,
2013-06-13 19:01:00,98.3,43.3,27.19,ESE,113,3.8,7.6,16,0.00,,,0.00,WUHU216HW,2013-06-14 02:01:00,
2013-06-13 19:06:00,97.9,43.0,27.20,SE,135,2.7,7.6,16,0.00,,,0.00,WUHU216HW,2013-06-14 02:06:00,
2013-06-13 19:11:00,97.7,42.8,27.20,WSW,248,4.9,5.8,16,0.00,,,0.00,WUHU216HW,2013-06-14 02:11:00,
2013-06-13 19:16:00,97.4,42.6,27.20,SSE,158,3.4,6.7,16,0.00,,,0.00,WUHU216HW,2013-06-14 02:16:00,
2013-06-13 19:21:00,97.2,42.4,27.20,SSW,203,5.1,6.7,16,0.00,,,0.00,WUHU216HW,2013-06-14 02:21:00,
2013-06-13 19:26:00,96.8,42.1,27.20,SE,135,2.0,5.1,16,0.00,,,0.00,WUHU216HW,2013-06-14 02:26:00,
2013-06-13 19:31:00,96.7,41.9,27.20,SSE,158,2.7,5.1,16,0.00,,,0.00,WUHU216HW,2013-06-14 02:31:00,
2013-06-13 19:36:00,96.3,41.7,27.20,SE,135,3.1,5.1,16,0.00,,,0.00,WUHU216HW,2013-06-14 02:36:00,
2013-06-13 19:41:00,96.1,43.3,27.20,SSW,203,3.6,5.1,17,0.00,,,0.00,WUHU216HW,2013-06-14 02:41:00,
2013-06-13 19:46:00,95.8,43.0,27.20,WSW,248,1.8,5.1,17,0.00,,,0.00,WUHU216HW,2013-06-14 02:46:00,
2013-06-13 19:51:00,95.6,42.8,27.20,SW,225,3.4,5.4,17,0.00,,,0.00,WUHU216HW,2013-06-14 02:51:00,
2013-06-13 19:56:00,95.4,42.8,27.20,SSW,203,2.5,5.4,17,0.00,,,0.00,WUHU216HW,2013-06-14 02:56:00,
2013-06-13 20:01:00,95.2,42.6,27.20,SE,135,2.0,5.4,17,0.00,,,0.00,WUHU216HW,2013-06-14 03:01:00,
2013-06-13 20:06:00,95.0,42.4,27.20,ENE,68,4.0,5.4,17,0.00,,,0.00,WUHU216HW,2013-06-14 03:06:00,
2013-06-13 20:11:00,94.7,42.1,27.20,ESE,113,1.3,4.0,17,0.00,,,0.00,WUHU216HW,2013-06-14 03:11:00,
2013-06-13 20:16:00,94.7,43.9,27.20,SSE,158,2.5,4.7,18,0.00,,,0.00,WUHU216HW,2013-06-14 03:16:00,
2013-06-13 20:21:00,94.5,43.7,27.20,SE,135,3.1,5.4,18,0.00,,,0.00,WUHU216HW,2013-06-14 03:21:00,
2013-06-13 20:26:00,94.3,43.6,27.20,SE,135,1.6,5.4,18,0.00,,,0.00,WUHU216HW,2013-06-14 03:26:00,
2013-06-13 20:31:00,94.1,43.5,27.21,SSE,158,2.0,4.3,18,0.00,,,0.00,WUHU216HW,2013-06-14 03:31:00,
2013-06-13 20:36:00,94.0,43.3,27.21,SE,135,2.0,4.3,18,0.00,,,0.00,WUHU216HW,2013-06-14 03:36:00,
2013-06-13 20:41:00,93.6,43.0,27.21,SE,135,1.8,2.5,18,0.00,,,0.00,WUHU216HW,2013-06-14 03:41:00,
2013-06-13 20:46:00,93.4,42.8,27.21,SSE,158,1.8,3.1,18,0.00,,,0.00,WUHU216HW,2013-06-14 03:46:00,
2013-06-13 20:51:00,93.2,44.5,27.22,SE,135,1.8,3.6,19,0.00,,,0.00,WUHU216HW,2013-06-14 03:51:00,
2013-06-13 20:56:00,93.1,44.4,27.22,SSE,158,2.5,3.6,19,0.00,,,0.00,WUHU216HW,2013-06-14 03:56:00,
2013-06-13 21:01:00,92.9,44.2,27.22,SSE,158,1.8,3.6,19,0.00,,,0.00,WUHU216HW,2013-06-14 04:01:00,
2013-06-13 21:06:00,92.7,44.1,27.22,SSE,158,1.1,4.7,19,0.00,,,0.00,WUHU216HW,2013-06-14 04:06:00,
2013-06-13 21:11:00,92.5,43.9,27.22,South,180,3.8,4.7,19,0.00,,,0.00,WUHU216HW,2013-06-14 04:11:00,
2013-06-13 21:16:00,92.3,43.8,27.22,South,180,1.1,4.3,19,0.00,,,0.00,WUHU216HW,2013-06-14 04:16:00,
2013-06-13 21:21:00,92.2,43.7,27.23,ESE,113,2.2,3.8,19,0.00,,,0.00,WUHU216HW,2013-06-14 04:21:00,
2013-06-13 21:26:00,92.0,43.5,27.23,SE,135,0.9,3.4,19,0.00,,,0.00,WUHU216HW,2013-06-14 04:26:00,
2013-06-13 21:31:00,91.8,43.4,27.23,NW,315,3.4,3.4,19,0.00,,,0.00,WUHU216HW,2013-06-14 04:31:00,
2013-06-13 21:36:00,91.4,43.1,27.24,SE,135,0.7,3.4,19,0.00,,,0.00,WUHU216HW,2013-06-14 04:36:00,
2013-06-13 21:41:00,91.4,43.1,27.24,ESE,113,1.6,3.4,19,0.00,,,0.00,WUHU216HW,2013-06-14 04:41:00,
2013-06-13 21:46:00,91.1,47.8,27.24,NE,45,2.2,3.1,23,0.00,,,0.00,WUHU216HW,2013-06-14 04:46:00,
2013-06-13 21:51:00,90.7,48.6,27.25,SE,135,1.1,3.1,24,0.00,,,0.00,WUHU216HW,2013-06-14 04:51:00,
2013-06-13 21:56:00,90.4,49.4,27.25,East,90,1.8,3.4,25,0.00,,,0.00,WUHU216HW,2013-06-14 04:56:00,
2013-06-13 22:01:00,90.2,49.2,27.25,East,90,2.7,4.5,25,0.00,,,0.00,WUHU216HW,2013-06-14 05:01:00,
2013-06-13 22:06:00,89.8,51.1,27.25,SE,135,1.6,4.5,27,0.00,,,0.00,WUHU216HW,2013-06-14 05:06:00,
2013-06-13 22:11:00,89.6,49.9,27.25,ESE,113,1.8,4.0,26,0.00,,,0.00,WUHU216HW,2013-06-14 05:11:00,
2013-06-13 22:16:00,89.3,49.6,27.25,SSE,158,1.8,3.8,26,0.00,,,0.00,WUHU216HW,2013-06-14 05:16:00,
2013-06-13 22:21:00,89.1,51.6,27.25,ESE,113,2.5,3.6,28,0.00,,,0.00,WUHU216HW,2013-06-14 05:21:00,
2013-06-13 22:26:00,88.9,51.4,27.25,East,90,1.1,3.4,28,0.00,,,0.00,WUHU216HW,2013-06-14 05:26:00,
2013-06-13 22:31:00,88.6,51.0,27.25,SSE,158,2.7,3.8,28,0.00,,,0.00,WUHU216HW,2013-06-14 05:31:00,
2013-06-13 22:36:00,88.4,51.0,27.26,East,90,2.5,3.8,28,0.00,,,0.00,WUHU216HW,2013-06-14 05:36:00,
2013-06-13 22:41:00,88.2,50.8,27.25,SE,135,1.8,4.9,28,0.00,,,0.00,WUHU216HW,2013-06-14 05:41:00,
2013-06-13 22:46:00,88.0,50.6,27.25,East,90,2.5,4.9,28,0.00,,,0.00,WUHU216HW,2013-06-14 05:46:00,
2013-06-13 22:51:00,87.8,50.4,27.26,SE,135,0.9,4.7,28,0.00,,,0.00,WUHU216HW,2013-06-14 05:51:00,
2013-06-13 22:56:00,87.5,50.1,27.26,SE,135,1.8,4.5,28,0.00,,,0.00,WUHU216HW,2013-06-14 05:56:00,
2013-06-13 23:01:00,87.3,50.0,27.26,ESE,113,2.0,4.5,28,0.00,,,0.00,WUHU216HW,2013-06-14 06:01:00,
2013-06-13 23:06:00,87.3,50.0,27.26,SE,135,1.8,4.7,28,0.00,,,0.00,WUHU216HW,2013-06-14 06:06:00,
2013-06-13 23:11:00,87.1,49.9,27.26,ESE,113,2.7,4.7,28,0.00,,,0.00,WUHU216HW,2013-06-14 06:11:00,
2013-06-13 23:16:00,86.9,49.7,27.26,East,90,1.3,4.5,28,0.00,,,0.00,WUHU216HW,2013-06-14 06:16:00,
2013-06-13 23:21:00,86.8,50.6,27.26,ESE,113,1.1,3.1,29,0.00,,,0.00,WUHU216HW,2013-06-14 06:21:00,
2013-06-13 23:26:00,86.8,49.6,27.26,SE,135,1.1,3.1,28,0.00,,,0.00,WUHU216HW,2013-06-14 06:26:00,
2013-06-13 23:31:00,86.6,50.5,27.26,SSW,203,2.7,3.4,29,0.00,,,0.00,WUHU216HW,2013-06-14 06:31:00,
2013-06-13 23:36:00,86.6,49.4,27.26,SSE,158,1.8,3.4,28,0.00,,,0.00,WUHU216HW,2013-06-14 06:36:00,
2013-06-13 23:41:00,86.4,50.3,27.26,ESE,113,2.2,3.1,29,0.00,,,0.00,WUHU216HW,2013-06-14 06:41:00,
2013-06-13 23:46:00,86.4,49.2,27.26,ESE,113,1.1,4.3,28,0.00,,,0.00,WUHU216HW,2013-06-14 06:46:00,
2013-06-13 23:51:00,86.2,50.2,27.26,ESE,113,2.7,4.3,29,0.00,,,0.00,WUHU216HW,2013-06-14 06:51:00,
2013-06-13 23:56:00,85.9,48.8,27.26,SE,135,1.8,2.7,28,0.00,,,0.00,WUHU216HW,2013-06-14 06:56:00,